EHI
0 0 0 0 0 0 0 0 0 0 0 0 0 0 0 0 0 0 0 0 0 0 0 0 0 0 0 0 0 0 0 0 0 0 0 0 0 0 0 0 0 0 0
0 0 0 0 0 0 0 0 0 0 0 0 0 0 0 0 0 0 0 0 0 0 0 0 0 0 0 0 0 0 0 0 0 0 0 0 0 0 0 0 0 0 0
0 0 0 0 0 0 0 0 0 0 0 0 0 0 0 0 0 0 0 0 0 0 0 0 0 0 0 0 0 0 0 0 0 0 0 0 0 0 0 0 0 0 0
0 0 0 0 0 0 0 0 0 0 0 0 0 0 0 0 0 0 0 0 0 0 0 0 0 0 0 0 0 0 0 0 0 0 0 0 0 0 0 0 0 0 0
0 0 0 0 0 0 0 0 0 0 0 0 0 0 0 0 0 0 0 0 0 0 0 0 0 0 0 0 0 0 0 0 0 0 0 0 0 0 0 0 0 0 0
0 0 0 0 0 0 0 0 0 0 0 0 0 0 0 0 0 0 0 0 0 0 0 0 0 0 0 0 0 0 0 0 0 0 0 0 0 0 0 0 0 0 0
0 0 0 0 0 0 0 0 0 0 0 0 0 0 0 0 0 0 0 0 0 0 0 0 0 0 0 0 0 0 0 0 0 0 0 0 0 0 0 0 0 0 0
0 0 0 0 0 0 0 0 0 0 0 0 0 0 0 0 0 0 0 0 0 0 0 0 0 0 0 0 0 0 0 0 0 0 0 0 0 0 0 0 0 0 0
0 0 0 0 0 0 0 0 0 0 0 0 0 0 0 0 0 0 0 0 0 0 0 0 0 0 0 0 0 0 0 0 0 0 0 0 0 0 0 0 0 0 0
0 0 0 0 0 0 0 0 0 0 0 0 0 0 0 0 0 0 0 0 0 0 0 0 0 0 0 0 0 0 0 0 0 0 0 0 0 0 0 0 0 0 0
0 0 0 0 0 0 0 0 0 0 0 0 0 0 0 0 0 0 0 0 0 0 0 0 0 0 0 0 0 0 0 0 0 0 0 0 0 0 0 0 0 0 0
0 0 0 0 0 0 0 0 0 0 0 0 0 0 0 0 0 0 0 0 0 0 0 0 0 0 0 0 0 0 0 0 0 0 0 0 0 0 0 0 0 0 0
0 0 0 0 0 0 0 0 0 0 0 0 0 0 0 0 0 0 0 0 0 0 0 0 0 0 0 0 0 0 0 0 0 0 0 0 0 0 0 0 0 0 0
0 0 0 0 0 0 0 0 0 0 0 0 0 0 0 0 0 0 0 0 0 0 0 0 0 0 0 0 0 0 0 0 0 0 0 0 0 0 0 0 0 0 0
0 0 0 0 0 0 0 0 0 0 0 0 0 0 0 0 0 0 0 0 0 0 0 0 0 0 0 0 0 0 0 0 0 0 0 0 0 0 0 0 0 0 0
0 0 0 0 0 0 0 0 0 0 0 0 0 0 0 0 0 0 0 0 0 0 0 0 0 0 0 0 0 0 0 0 0 0 0 0 0 0 0 0 0 0 0
0 0 0 0 0 0 0 0 0 0 0 0 0 0 0 0 0 0 0 0 0 0 0 0 0 0 0 0 0 0 0 0 0 0 0 0 0 0 0 0 0 0 0
0 0 0 0 0 0 0 0 0 0 0 0 0 0 0 0 0 0 0 0 0 0 0 0 0 0 0 0 0 0 0 0 0 0 0 0 0 0 0 0 0 0 0
0 0 0 0 0 0 0 0 0 0 0 0 0 0 0 0 0 0 0 0 0 0 0 0 0 0 0 0 0 0 0 0 0 0 0 0 0 0 0 0 0 0 0
0 0 0 0 0 0 0 0 0 0 0 0 0 0 0 0 0 0 0 0 0 0 0 0 0 0 0 0 0 0 0 0 0 0 0 0 0 0 0 0 0 0 0
0 0 0 0 0 0 0 0 0 0 0 0 0 0 0 0 0 0 0 0 0 0 0 0 0 0 0 0 0 0 0 0 0 0 0 0 0 0 0 0 0 0 0
0 0 0 0 0 0 0 0 0 0 0 0 0 0 0 0 0 0 0 0 0 0 0 0 0 0 0 0 0 0 0 0 0 0 0 0 0 0 0 0 0 0 0
0 0 0 0 0 0 0 0 0 0 0 0 0 0 0 0 0 0 0 0 0 0 0 0 0 0 0 0 0 0 0 0 0 0 0 0 0 0 0 0 0 0 0
0 0 0 0 0 0 0 0 0 0 0 0 0 0 0 0 0 0 0 0 0 0 0 0 0 0 0 0 0 0 0 0 0 0 0 0 0 0 0 0 0 0 0
0 0 0 0 0 0 0 0 0 0 0 0 0 0 0 0 0 0 0 0 0 0 0 0 0 0 0 0 0 0 0 0 0 0 0 0 0 0 0 0 0 0 0
0 0 0 0 0 0 0 0 0 0 0 0 0 0 0 0 0 0 0 0 0 0 0 0 0 0 0 0 0 0 0 0 0 0 0 0 0 0 0 0 0 0 0
Wind_Speed
18 18 18 16 15 14 13 13 13 12 11 10 8 7 5 4 2 1 2 3 5 5 5 6 7 8 7 7 8 9 10 11 16 15 12 14 17 18 16 16 16 16 16
18 18 17 17 15 14 14 13 13 12 10 9 7 6 4 3 1 2 3 4 5 6 7 7 8 7 10 9 8 10 10 12 15 19 15 14 18 18 18 17 15 14 15
18 18 18 16 15 15 14 13 12 11 10 8 6 5 3 2 1 3 4 6 6 7 8 8 9 10 11 10 11 11 11 11 13 15 17 15 14 14 17 16 18 15 15
17 18 17 16 15 15 14 13 11 10 9 7 5 4 2 1 2 4 5 7 8 8 8 8 9 10 12 12 11 13 13 14 14 15 15 15 14 16 15 15 15 14 14
18 17 16 15 15 14 13 12 10 9 7 6 4 3 1 1 3 6 7 8 9 9 9 9 10 12 15 14 12 13 14 13 13 14 15 15 15 15 15 14 15 15 15
17 17 16 15 14 13 12 11 10 8 6 5 3 1 1 2 5 8 9 9 9 9 10 10 11 12 14 18 20 20 20 17 16 15 14 16 19 18 15 14 15 16 17
17 17 15 15 14 12 11 10 8 7 5 4 2 1 3 3 6 9 10 10 10 9 11 11 10 10 15 13 17 20 20 23 22 18 18 18 19 17 18 19 17 18 18
17 16 14 14 13 11 10 9 7 5 3 2 0 2 4 4 7 10 12 10 9 10 11 12 13 13 13 16 17 17 17 16 18 15 16 17 17 18 18 18 18 18 18
16 15 13 13 12 10 9 7 5 4 2 1 1 3 5 5 6 10 12 9 9 11 11 12 13 14 18 21 18 17 18 16 16 19 22 23 27 27 21 14 14 14 15
14 14 12 11 10 9 8 6 4 2 1 1 2 3 5 6 7 11 13 8 9 10 10 12 15 16 19 22 17 16 17 16 15 16 17 18 17 17 19 14 11 12 14
14 13 11 10 9 8 7 5 3 2 0 2 4 4 5 6 8 10 13 9 9 11 10 10 10 18 22 24 21 16 17 18 16 15 14 13 12 11 11 11 10 10 13
13 12 10 9 7 6 6 4 2 1 2 3 5 5 4 5 6 10 14 14 14 12 11 10 12 21 24 24 18 17 21 19 11 10 11 11 11 11 11 12 14 14 14
13 11 10 8 7 5 4 3 1 1 2 3 4 5 6 6 7 12 14 16 17 13 11 17 21 23 21 16 15 19 16 10 9 10 11 11 11 12 12 12 14 14 16
12 10 8 7 6 4 3 1 1 2 3 4 5 6 7 7 7 8 9 11 14 12 11 15 20 18 15 15 14 11 8 9 10 10 11 11 11 11 11 11 11 11 12
11 9 7 5 4 3 2 1 2 2 4 6 6 6 8 9 10 17 14 11 11 12 14 11 10 9 9 9 9 9 9 9 9 9 10 11 11 11 11 10 10 11 12
9 7 5 4 3 2 1 1 1 3 6 7 8 9 9 12 18 18 18 19 20 19 14 9 9 9 9 10 10 11 10 10 10 10 10 11 11 11 12 11 10 11 12
8 6 4 3 2 1 2 3 4 3 4 6 8 11 13 16 17 17 18 19 18 16 9 7 8 9 9 10 10 10 11 11 10 10 11 11 11 11 11 11 11 11 11
8 6 4 3 2 1 2 3 4 5 7 6 8 11 14 16 17 17 17 15 10 8 7 8 9 9 9 10 10 10 11 11 10 10 10 11 10 11 11 11 11 12 12
6 4 3 2 2 2 2 3 4 5 6 7 8 9 13 15 16 14 14 8 8 8 8 9 9 9 10 10 10 10 11 11 11 11 11 11 10 10 11 11 11 15 14
5 5 3 2 2 2 3 3 4 5 6 7 7 8 9 11 9 9 8 8 8 9 9 9 10 10 10 10 10 10 11 11 12 11 11 10 10 10 11 13 11 11 11
4 4 3 2 2 3 3 4 5 5 6 7 7 9 14 10 9 10 9 9 8 9 10 10 10 11 10 10 10 11 13 11 11 11 11 11 10 10 10 10 11 11 10
3 2 2 2 2 3 4 4 5 5 7 8 8 9 14 9 8 8 9 9 9 9 9 10 10 10 10 10 10 11 12 12 12 11 11 11 11 11 11 10 10 10 9
3 2 2 2 3 4 4 4 5 5 6 7 8 8 8 8 8 9 10 10 10 10 9 9 11 11 10 10 10 11 12 12 12 12 12 12 11 10 10 10 10 10 9
2 2 2 3 3 4 4 5 5 6 7 7 8 8 8 9 9 10 10 10 10 10 10 10 11 15 18 14 11 10 11 12 13 12 14 12 11 9 8 8 8 9 9
2 2 2 3 4 4 5 5 6 6 7 7 7 8 9 9 10 10 10 10 12 12 14 13 11 12 16 19 17 14 17 22 19 11 9 8 8 8 8 8 7 8 7
2 2 3 3 4 4 5 5 6 7 7 7 7 8 9 9 10 10 10 10 10 12 13 12 14 16 19 16 16 19 21 20 17 14 8 6 7 7 7 6 7 7 7
Wind_Direction
140 136 135 135 135 133 130 130 129 130 134 134 133 135 137 141 159 216 262 273 285 292 291 294 297 299 295 292 290 286 283 284 288 294 298 301 300 297 297 296 293 292 290
136 133 132 132 132 130 129 128 129 130 130 130 132 134 134 145 198 260 278 283 291 296 299 298 297 299 295 294 291 289 288 287 289 295 299 299 299 300 298 297 297 293 291
133 131 130 131 131 129 128 128 128 127 127 129 132 133 137 159 244 278 288 293 293 294 297 296 298 300 298 297 296 292 290 289 288 291 296 298 297 299 301 299 298 296 296
132 130 129 130 129 127 126 126 126 127 128 129 128 128 137 210 268 287 293 293 293 293 292 290 293 296 298 300 296 294 293 294 293 292 294 298 299 303 303 304 303 301 298
129 125 124 124 123 123 124 124 124 123 122 125 129 132 161 272 298 308 302 298 297 296 293 290 290 293 294 295 294 296 299 296 294 293 295 299 301 306 305 305 302 302 297
125 123 123 124 124 123 124 125 123 123 125 130 129 138 291 314 318 307 310 304 298 296 297 297 296 293 294 297 297 297 294 292 293 294 296 298 299 301 304 303 301 301 300
122 123 125 125 124 124 125 126 126 126 130 133 134 283 308 323 313 313 313 304 298 297 298 298 298 298 301 299 299 296 293 291 290 291 293 293 297 300 301 300 298 297 296
122 124 126 126 125 127 127 125 124 126 132 134 91 319 307 314 316 313 313 302 297 295 296 298 300 301 303 305 303 299 297 295 293 292 289 290 291 293 293 294 296 294 290
124 126 128 129 129 130 127 125 125 130 128 102 312 305 305 310 316 314 318 309 299 299 299 298 299 298 303 306 305 302 301 299 298 296 291 288 289 292 293 293 291 292 293
125 125 125 127 127 126 125 123 120 118 98 316 295 297 301 308 315 316 320 307 304 304 302 300 298 302 306 308 307 305 303 305 307 302 296 293 292 291 290 284 284 287 291
120 118 117 117 117 118 117 115 117 111 316 305 304 301 296 303 311 316 318 312 309 307 304 304 303 308 309 310 310 304 302 305 302 299 299 298 297 295 295 294 290 283 283
117 114 113 113 112 116 117 116 111 60 315 317 314 312 308 308 305 315 317 314 311 307 304 304 306 309 311 312 310 305 306 306 299 299 298 298 300 301 300 299 293 285 273
116 114 113 112 109 113 114 112 104 349 324 321 317 313 315 316 316 317 317 315 314 309 303 305 307 310 313 311 306 308 309 302 299 298 297 297 299 298 297 296 294 289 284
119 118 118 116 114 111 102 83 14 342 327 319 315 314 315 315 319 323 321 318 317 313 311 308 309 309 308 304 306 307 303 297 300 297 297 297 298 297 296 298 299 303 298
118 117 115 111 114 108 91 29 342 338 324 320 319 318 316 315 320 322 319 316 316 314 315 307 306 310 311 312 310 308 307 306 305 300 298 298 299 299 299 300 298 298 294
119 117 113 113 106 86 36 354 239 292 318 318 320 320 314 311 317 320 319 319 319 319 316 305 308 311 311 312 311 310 309 307 305 302 299 297 297 299 300 300 298 296 296
116 115 112 108 94 58 7 345 334 312 296 309 323 327 323 322 323 322 323 323 320 321 311 306 306 306 306 304 303 302 302 303 303 298 295 296 296 296 296 298 299 299 298
107 104 103 95 75 34 359 342 333 328 326 326 329 329 330 330 326 325 328 327 319 321 311 306 304 304 303 301 300 299 299 301 300 298 296 294 294 294 295 296 297 299 300
105 104 101 91 65 19 350 334 327 322 318 319 321 327 335 329 324 327 333 324 316 314 310 306 303 301 299 297 296 296 296 296 296 296 294 293 293 293 292 293 295 298 300
100 98 90 74 42 6 345 334 328 324 320 321 323 328 329 326 325 327 328 318 311 308 307 304 301 298 297 295 295 295 295 294 295 293 293 293 292 290 291 293 295 298 300
102 98 79 56 24 355 337 332 327 321 319 319 319 322 327 322 317 316 315 313 310 307 305 302 299 298 295 294 293 293 293 292 292 291 291 291 292 292 291 291 293 295 299
93 82 56 28 1 343 335 329 321 318 317 317 318 321 324 320 313 311 310 309 306 302 300 298 295 293 293 293 292 292 291 291 291 291 291 291 291 291 291 292 296 301 305
83 70 40 10 347 333 326 322 320 317 316 317 317 317 317 316 314 311 309 307 306 304 301 297 294 293 293 292 289 286 285 285 287 288 289 289 289 290 292 297 303 310 314
69 42 9 348 334 327 324 322 319 317 316 315 314 313 313 313 310 308 307 305 305 303 301 298 293 293 296 298 294 290 284 284 284 282 281 281 288 295 302 309 312 318 318
47 13 347 335 327 322 319 317 316 315 313 310 310 309 310 310 307 307 307 306 306 303 304 303 297 298 301 303 302 298 296 301 305 307 304 308 313 315 318 320 322 324 326
16 347 332 324 318 316 314 312 311 311 308 307 305 305 306 305 305 305 306 306 308 307 305 303 301 305 307 306 303 306 312 320 329 334 331 321 323 328 332 330 333 333 337